| time (UTC) | temp C | wind direction | speed KPH | gust KPH | rain 1hr cm | rain 24hr cm | rain mn cm | humidity % | barometer mb |
| 20260506180939 | 2 | 28 | 0.0 | 11.3 | 0.00 | 0.00 | 0.00 | 11 | 999.4 |
| 20260506180903 | 2 | 28 | 0.0 | 11.3 | 0.00 | 0.00 | 0.00 | 11 | 999.4 |
| 20260506180720 | 2 | 25 | 0.0 | 11.3 | 0.00 | 0.00 | 0.00 | 11 | 999.4 |
| 20260506180438 | 2 | 12 | 4.8 | 12.9 | 0.00 | 0.00 | 0.00 | 11 | 999.4 |
| 20260506180004 | 2 | 7 | 3.2 | 17.7 | 0.00 | 0.00 | 0.00 | 11 | 999.3 |
| 20260506175938 | 2 | 3 | 3.2 | 17.7 | 0.00 | 0.00 | 0.00 | 11 | 999.4 |
| 20260506175438 | 2 | 4 | 6.4 | 17.7 | 0.00 | 0.00 | 0.00 | 11 | 999.3 |
| 20260506175403 | 2 | 4 | 6.4 | 17.7 | 0.00 | 0.00 | 0.00 | 11 | 999.3 |
| 20260506174938 | 2 | 355 | 6.4 | 14.5 | 0.00 | 0.00 | 0.00 | 11 | 999.4 |
| 20260506174720 | 2 | 358 | 4.8 | 14.5 | 0.00 | 0.00 | 0.00 | 11 | 999.3 |
| 20260506174503 | 2 | 344 | 9.7 | 14.5 | 0.00 | 0.00 | 0.00 | 11 | 999.4 |
| 20260506174438 | 2 | 339 | 6.4 | 12.9 | 0.00 | 0.00 | 0.00 | 11 | 999.4 |
| 20260506173938 | 2 | 350 | 6.4 | 17.7 | 0.00 | 0.00 | 0.00 | 11 | 999.3 |
| 20260506173603 | 2 | 348 | 6.4 | 17.7 | 0.00 | 0.00 | 0.00 | 11 | 999.3 |
| 20260506173438 | 3 | 346 | 11.3 | 17.7 | 0.00 | 0.00 | 0.00 | 11 | 999.4 |
| 20260506172938 | 3 | 324 | 4.8 | 11.3 | 0.00 | 0.00 | 0.00 | 11 | 999.2 |
| 20260506172720 | 3 | 310 | 3.2 | 11.3 | 0.00 | 0.00 | 0.00 | 11 | 999.2 |
| 20260506172703 | 3 | 309 | 3.2 | 11.3 | 0.00 | 0.00 | 0.00 | 11 | 999.2 |
| 20260506172438 | 3 | 290 | 6.4 | 11.3 | 0.00 | 0.00 | 0.00 | 11 | 999.3 |
| 20260506171938 | 3 | 253 | 3.2 | 6.4 | 0.00 | 0.00 | 0.00 | 11 | 999.2 |
| 20260506171803 | 3 | 251 | 1.6 | 6.4 | 0.00 | 0.00 | 0.00 | 11 | 999.1 |
| 20260506171438 | 2 | 208 | 1.6 | 16.1 | 0.00 | 0.00 | 0.00 | 11 | 999.0 |
| 20260506170938 | 2 | 205 | 0.0 | 16.1 | 0.00 | 0.00 | 0.00 | 11 | 998.9 |
| 20260506170903 | 2 | 205 | 0.0 | 16.1 | 0.00 | 0.00 | 0.00 | 11 | 998.9 |
| 20260506170721 | 2 | 207 | 1.6 | 16.1 | 0.00 | 0.00 | 0.00 | 11 | 998.9 |
| 20260506170439 | 2 | 207 | 11.3 | 16.1 | 0.00 | 0.00 | 0.00 | 11 | 998.9 |
| 20260506170003 | 2 | 227 | 11.3 | 19.3 | 0.00 | 0.00 | 0.00 | 11 | 998.9 |
| 20260506165939 | 2 | 224 | 6.4 | 19.3 | 0.00 | 0.00 | 0.00 | 11 | 999.1 |
| 20260506165439 | 2 | 266 | 6.4 | 19.3 | 0.00 | 0.00 | 0.00 | 11 | 999.2 |
| 20260506165403 | 2 | 266 | 6.4 | 19.3 | 0.00 | 0.00 | 0.00 | 11 | 999.2 |
| 20260506164939 | 2 | 305 | 9.7 | 17.7 | 0.00 | 0.00 | 0.00 | 11 | 999.0 |
| 20260506164721 | 3 | 306 | 6.4 | 17.7 | 0.00 | 0.00 | 0.00 | 11 | 999.0 |
| 20260506164503 | 3 | 304 | 6.4 | 17.7 | 0.00 | 0.00 | 0.00 | 11 | 999.0 |
| 20260506164439 | 3 | 306 | 1.6 | 17.7 | 0.00 | 0.00 | 0.00 | 11 | 999.0 |
| 20260506163939 | 3 | 276 | 6.4 | 17.7 | 0.00 | 0.00 | 0.00 | 11 | 999.0 |
| 20260506163603 | 3 | 285 | 6.4 | 14.5 | 0.00 | 0.00 | 0.00 | 11 | 999.0 |
| 20260506163439 | 3 | 284 | 6.4 | 14.5 | 0.00 | 0.00 | 0.00 | 11 | 998.9 |
| 20260506162939 | 3 | 294 | 3.2 | 12.9 | 0.00 | 0.00 | 0.00 | 11 | 998.9 |
| 20260506162721 | 3 | 297 | 3.2 | 12.9 | 0.00 | 0.00 | 0.00 | 11 | 998.7 |
| 20260506162703 | 3 | 296 | 3.2 | 12.9 | 0.00 | 0.00 | 0.00 | 11 | 998.7 |
| 20260506162439 | 3 | 275 | 3.2 | 12.9 | 0.00 | 0.00 | 0.00 | 11 | 998.8 |
| 20260506161939 | 3 | 265 | 4.8 | 12.9 | 0.00 | 0.00 | 0.00 | 11 | 998.7 |
| 20260506161803 | 3 | 261 | 4.8 | 12.9 | 0.00 | 0.00 | 0.00 | 11 | 998.7 |
| 20260506161439 | 3 | 266 | 6.4 | 12.9 | 0.00 | 0.00 | 0.00 | 11 | 998.8 |
| 20260506160939 | 3 | 229 | 4.8 | 12.9 | 0.00 | 0.00 | 0.00 | 11 | 998.8 |
| 20260506160903 | 3 | 229 | 4.8 | 12.9 | 0.00 | 0.00 | 0.00 | 11 | 998.8 |
| 20260506160721 | 3 | 237 | 6.4 | 12.9 | 0.00 | 0.00 | 0.00 | 11 | 998.8 |
| 20260506160439 | 2 | 229 | 3.2 | 16.1 | 0.00 | 0.00 | 0.00 | 11 | 998.8 |
| 20260506160003 | 2 | 242 | 4.8 | 16.1 | 0.00 | 0.00 | 0.00 | 11 | 998.8 |
| 20260506155939 | 2 | 247 | 4.8 | 16.1 | 0.00 | 0.00 | 0.00 | 11 | 998.8 |
| 20260506155439 | 2 | 251 | 1.6 | 24.1 | 0.00 | 0.00 | 0.00 | 11 | 998.7 |
| 20260506155403 | 2 | 251 | 1.6 | 24.1 | 0.00 | 0.00 | 0.00 | 11 | 998.7 |
| 20260506154939 | 3 | 269 | 6.4 | 24.1 | 0.00 | 0.00 | 0.00 | 11 | 998.8 |
| 20260506154721 | 3 | 271 | 11.3 | 24.1 | 0.00 | 0.00 | 0.00 | 11 | 998.7 |
| 20260506154503 | 3 | 273 | 6.4 | 19.3 | 0.00 | 0.00 | 0.00 | 11 | 998.8 |
| 20260506154439 | 3 | 275 | 8.0 | 19.3 | 0.00 | 0.00 | 0.00 | 11 | 998.5 |
| 20260506153939 | 3 | 297 | 4.8 | 17.7 | 0.00 | 0.00 | 0.00 | 11 | 998.5 |
| 20260506153603 | 3 | 321 | 6.4 | 11.3 | 0.00 | 0.00 | 0.00 | 11 | 998.4 |
| 20260506153439 | 3 | 328 | 3.2 | 9.7 | 0.00 | 0.00 | 0.00 | 11 | 998.3 |
| 20260506152939 | 3 | 324 | 3.2 | 12.9 | 0.00 | 0.00 | 0.00 | 11 | 998.4 |
| 20260506152721 | 3 | 329 | 3.2 | 12.9 | 0.00 | 0.00 | 0.00 | 11 | 998.4 |
| 20260506152703 | 3 | 331 | 3.2 | 12.9 | 0.00 | 0.00 | 0.00 | 11 | 998.4 |
| 20260506152439 | 3 | 341 | 3.2 | 12.9 | 0.00 | 0.00 | 0.00 | 11 | 998.4 |
| 20260506151940 | 4 | 317 | 4.8 | 9.7 | 0.00 | 0.00 | 0.00 | 11 | 998.3 |
| 20260506151803 | 4 | 323 | 4.8 | 9.7 | 0.00 | 0.00 | 0.00 | 11 | 998.3 |
| 20260506151440 | 4 | 285 | 6.4 | 9.7 | 0.00 | 0.00 | 0.00 | 11 | 998.3 |
| 20260506150940 | 4 | 238 | 3.2 | 11.3 | 0.00 | 0.00 | 0.00 | 11 | 998.4 |
| 20260506150903 | 4 | 238 | 3.2 | 11.3 | 0.00 | 0.00 | 0.00 | 11 | 998.4 |
| 20260506150722 | 4 | 239 | 3.2 | 11.3 | 0.00 | 0.00 | 0.00 | 11 | 998.4 |
| 20260506150440 | 3 | 240 | 3.2 | 11.3 | 0.00 | 0.00 | 0.00 | 11 | 998.4 |
| 20260506150003 | 3 | 295 | 1.6 | 11.3 | 0.00 | 0.00 | 0.00 | 11 | 998.3 |
| 20260506145940 | 3 | 296 | 3.2 | 11.3 | 0.00 | 0.00 | 0.00 | 11 | 998.4 |
| 20260506145440 | 3 | 290 | 3.2 | 11.3 | 0.00 | 0.00 | 0.00 | 11 | 998.4 |
| 20260506145403 | 3 | 290 | 3.2 | 11.3 | 0.00 | 0.00 | 0.00 | 11 | 998.4 |
| 20260506144824 | 3 | 282 | 1.6 | 11.3 | 0.00 | 0.00 | 0.00 | 11 | 998.3 |
| 20260506144722 | 3 | 292 | 3.2 | 11.3 | 0.00 | 0.00 | 0.00 | 11 | 998.4 |
| 20260506144503 | 3 | 300 | 6.4 | 11.3 | 0.00 | 0.00 | 0.00 | 11 | 998.4 |
| 20260506144324 | 3 | 308 | 3.2 | 12.9 | 0.00 | 0.00 | 0.00 | 11 | 998.3 |
| 20260506143824 | 3 | 321 | 6.4 | 14.5 | 0.00 | 0.00 | 0.00 | 11 | 998.3 |
| 20260506143603 | 3 | 315 | 3.2 | 14.5 | 0.00 | 0.00 | 0.00 | 11 | 998.4 |
| 20260506143324 | 3 | 309 | 4.8 | 17.7 | 0.00 | 0.00 | 0.00 | 11 | 998.4 |
| 20260506142824 | 2 | 325 | 6.4 | 22.5 | 0.00 | 0.00 | 0.00 | 11 | 998.5 |
| 20260506142722 | 2 | 323 | 6.4 | 24.1 | 0.00 | 0.00 | 0.00 | 11 | 998.4 |
| 20260506142703 | 2 | 323 | 6.4 | 24.1 | 0.00 | 0.00 | 0.00 | 11 | 998.4 |
| 20260506142324 | 3 | 326 | 9.7 | 24.1 | 0.00 | 0.00 | 0.00 | 11 | 998.4 |
| 20260506141824 | 3 | 331 | 9.7 | 24.1 | 0.00 | 0.00 | 0.00 | 11 | 998.3 |
| 20260506141803 | 3 | 331 | 9.7 | 24.1 | 0.00 | 0.00 | 0.00 | 11 | 998.3 |
| 20260506141324 | 5 | 336 | 4.8 | 22.5 | 0.00 | 0.00 | 0.00 | 11 | 998.0 |
| 20260506140903 | 5 | 322 | 9.7 | 17.7 | 0.00 | 0.00 | 0.00 | 11 | 998.0 |
| 20260506140824 | 5 | 317 | 6.4 | 14.5 | 0.00 | 0.00 | 0.00 | 11 | 998.0 |
| 20260506140722 | 5 | 311 | 9.7 | 14.5 | 0.00 | 0.00 | 0.00 | 11 | 998.0 |
| 20260506140324 | 4 | 323 | 9.7 | 14.5 | 0.00 | 0.00 | 0.00 | 11 | 997.9 |
| 20260506140003 | 4 | 336 | 9.7 | 17.7 | 0.00 | 0.00 | 0.00 | 11 | 998.0 |
| 20260506135824 | 4 | 345 | 3.2 | 17.7 | 0.00 | 0.00 | 0.00 | 11 | 998.1 |
| 20260506135403 | 4 | 353 | 6.4 | 17.7 | 0.00 | 0.00 | 0.00 | 11 | 998.0 |
| 20260506135324 | 5 | 353 | 8.0 | 17.7 | 0.00 | 0.00 | 0.00 | 11 | 998.0 |
| 20260506134824 | 5 | 354 | 9.7 | 20.9 | 0.00 | 0.00 | 0.00 | 11 | 998.0 |
| 20260506134722 | 5 | 354 | 8.0 | 20.9 | 0.00 | 0.00 | 0.00 | 11 | 997.9 |
| 20260506134503 | 4 | 348 | 8.0 | 20.9 | 0.00 | 0.00 | 0.00 | 11 | 997.9 |
| 20260506134324 | 4 | 346 | 8.0 | 20.9 | 0.00 | 0.00 | 0.00 | 11 | 997.9 |
| 20260506133823 | 4 | 325 | 11.3 | 20.9 | 0.00 | 0.00 | 0.00 | 11 | 997.9 |
| 20260506133603 | 5 | 311 | 12.9 | 17.7 | 0.00 | 0.00 | 0.00 | 11 | 997.9 |
| 20260506133323 | 5 | 289 | 9.7 | 17.7 | 0.00 | 0.00 | 0.00 | 11 | 997.9 |
| 20260506132823 | 5 | 290 | 3.2 | 20.9 | 0.00 | 0.00 | 0.00 | 11 | 997.9 |
| 20260506132721 | 5 | 289 | 6.4 | 20.9 | 0.00 | 0.00 | 0.00 | 11 | 997.7 |
| 20260506132703 | 5 | 290 | 6.4 | 20.9 | 0.00 | 0.00 | 0.00 | 11 | 997.7 |
| 20260506132323 | 5 | 287 | 4.8 | 20.9 | 0.00 | 0.00 | 0.00 | 11 | 997.8 |
| 20260506131823 | 4 | 287 | 1.6 | 11.3 | 0.00 | 0.00 | 0.00 | 11 | 997.6 |
| 20260506131803 | 4 | 287 | 1.6 | 11.3 | 0.00 | 0.00 | 0.00 | 11 | 997.6 |
| 20260506131426 | 4 | 278 | 3.2 | 17.7 | 0.00 | 0.00 | 0.00 | 11 | 997.8 |
| 20260506130926 | 5 | 246 | 6.4 | 17.7 | 0.00 | 0.00 | 0.00 | 11 | 997.8 |
| 20260506130903 | 5 | 246 | 6.4 | 17.7 | 0.00 | 0.00 | 0.00 | 11 | 997.8 |
| 20260506130720 | 5 | 243 | 6.4 | 17.7 | 0.00 | 0.00 | 0.00 | 11 | 997.8 |
| 20260506130426 | 5 | 221 | 3.2 | 6.4 | 0.00 | 0.00 | 0.00 | 11 | 997.7 |
| 20260506130003 | 5 | 211 | 3.2 | 6.4 | 0.00 | 0.00 | 0.00 | 11 | 997.7 |
| 20260506125926 | 5 | 209 | 0.0 | 6.4 | 0.00 | 0.00 | 0.00 | 11 | 997.9 |
| 20260506125426 | 3 | 276 | 3.2 | 12.9 | 0.00 | 0.00 | 0.00 | 11 | 997.7 |
| 20260506125403 | 3 | 276 | 3.2 | 12.9 | 0.00 | 0.00 | 0.00 | 11 | 997.7 |
| 20260506124926 | 3 | 283 | 3.2 | 12.9 | 0.00 | 0.00 | 0.00 | 11 | 997.8 |
| 20260506124720 | 4 | 268 | 6.4 | 12.9 | 0.00 | 0.00 | 0.00 | 11 | 997.8 |
| 20260506124504 | 5 | 261 | 6.4 | 12.9 | 0.00 | 0.00 | 0.00 | 11 | 997.9 |
| 20260506124426 | 5 | 255 | 6.4 | 12.9 | 0.00 | 0.00 | 0.00 | 11 | 997.8 |
| 20260506123926 | 5 | 274 | 4.8 | 14.5 | 0.00 | 0.00 | 0.00 | 11 | 997.7 |
| 20260506123603 | 5 | 283 | 4.8 | 14.5 | 0.00 | 0.00 | 0.00 | 11 | 997.6 |
| 20260506123426 | 5 | 268 | 6.4 | 14.5 | 0.00 | 0.00 | 0.00 | 11 | 997.6 |
| 20260506122926 | 5 | 221 | 3.2 | 14.5 | 0.00 | 0.00 | 0.00 | 11 | 997.5 |
| 20260506122720 | 5 | 217 | 3.2 | 14.5 | 0.00 | 0.00 | 0.00 | 11 | 997.4 |
| 20260506122703 | 5 | 217 | 3.2 | 14.5 | 0.00 | 0.00 | 0.00 | 11 | 997.4 |
| 20260506122426 | 5 | 205 | 4.8 | 14.5 | 0.00 | 0.00 | 0.00 | 11 | 997.5 |
| 20260506121926 | 5 | 206 | 6.4 | 17.7 | 0.00 | 0.00 | 0.00 | 11 | 997.4 |
| 20260506121803 | 4 | 207 | 4.8 | 17.7 | 0.00 | 0.00 | 0.00 | 11 | 997.4 |
| 20260506121426 | 4 | 236 | 3.2 | 19.3 | 0.00 | 0.00 | 0.00 | 11 | 997.4 |
| 20260506120926 | 4 | 301 | 6.4 | 24.1 | 0.00 | 0.00 | 0.00 | 11 | 997.5 |
| 20260506120903 | 4 | 301 | 6.4 | 24.1 | 0.00 | 0.00 | 0.00 | 11 | 997.5 |
| 20260506120720 | 5 | 314 | 6.4 | 24.1 | 0.00 | 0.00 | 0.00 | 11 | 997.4 |
| 20260506120426 | 5 | 317 | 12.9 | 24.1 | 0.00 | 0.00 | 0.00 | 11 | 997.4 |
| 20260506120003 | 5 | 292 | 12.9 | 24.1 | 0.00 | 0.00 | 0.00 | 11 | 997.3 |
| 20260506115925 | 5 | 282 | 14.5 | 24.1 | 0.00 | 0.00 | 0.00 | 11 | 997.3 |
| 20260506115426 | 6 | 237 | 3.2 | 17.7 | 0.00 | 0.00 | 0.00 | 11 | 997.0 |
| 20260506115403 | 6 | 237 | 3.2 | 17.7 | 0.00 | 0.00 | 0.00 | 11 | 997.0 |
| 20260506114926 | 5 | 223 | 3.2 | 17.7 | 0.00 | 0.00 | 0.00 | 11 | 997.0 |
| 20260506114721 | 5 | 215 | 4.8 | 17.7 | 0.00 | 0.00 | 0.00 | 11 | 997.1 |
| 20260506114503 | 5 | 215 | 11.3 | 17.7 | 0.00 | 0.00 | 0.00 | 11 | 996.9 |
| 20260506114427 | 6 | 209 | 9.7 | 17.7 | 0.00 | 0.00 | 0.00 | 11 | 997.1 |
| 20260506113927 | 6 | 200 | 3.2 | 11.3 | 0.00 | 0.00 | 0.00 | 11 | 997.0 |
| 20260506113603 | 6 | 218 | 1.6 | 12.9 | 0.00 | 0.00 | 0.00 | 11 | 996.9 |
| 20260506113427 | 6 | 213 | 4.8 | 12.9 | 0.00 | 0.00 | 0.00 | 11 | 997.0 |
| 20260506112926 | 5 | 214 | 3.2 | 14.5 | 0.00 | 0.00 | 0.00 | 11 | 997.0 |
| 20260506112721 | 5 | 219 | 3.2 | 14.5 | 0.00 | 0.00 | 0.00 | 11 | 997.0 |
| 20260506112703 | 5 | 219 | 3.2 | 14.5 | 0.00 | 0.00 | 0.00 | 11 | 997.0 |
| 20260506112426 | 4 | 244 | 3.2 | 14.5 | 0.00 | 0.00 | 0.00 | 11 | 997.0 |
| 20260506111926 | 3 | 313 | 9.7 | 14.5 | 0.00 | 0.00 | 0.00 | 11 | 997.0 |
| 20260506111803 | 3 | 319 | 4.8 | 12.9 | 0.00 | 0.00 | 0.00 | 11 | 996.9 |
| 20260506111426 | 3 | 345 | 4.8 | 22.5 | 0.00 | 0.00 | 0.00 | 11 | 997.0 |
| 20260506110926 | 3 | 357 | 6.4 | 22.5 | 0.00 | 0.00 | 0.00 | 11 | 997.0 |
| 20260506110904 | 3 | 357 | 6.4 | 22.5 | 0.00 | 0.00 | 0.00 | 11 | 997.0 |
| 20260506110721 | 3 | 2 | 11.3 | 22.5 | 0.00 | 0.00 | 0.00 | 11 | 997.0 |
| 20260506110425 | 4 | 357 | 11.3 | 16.1 | 0.00 | 0.00 | 0.00 | 11 | 997.0 |
| 20260506110003 | 4 | 340 | 6.4 | 12.9 | 0.00 | 0.00 | 0.00 | 11 | 996.9 |
| 20260506105926 | 4 | 335 | 8.0 | 12.9 | 0.00 | 0.00 | 0.00 | 11 | 996.8 |
| 20260506105425 | 3 | 350 | 3.2 | 12.9 | 0.00 | 0.00 | 0.00 | 11 | 996.8 |
| 20260506105403 | 3 | 350 | 3.2 | 12.9 | 0.00 | 0.00 | 0.00 | 11 | 996.8 |
| 20260506104925 | 4 | 347 | 6.4 | 12.9 | 0.00 | 0.00 | 0.00 | 11 | 996.9 |
| 20260506104721 | 4 | 346 | 6.4 | 12.9 | 0.00 | 0.00 | 0.00 | 11 | 996.8 |
| 20260506104503 | 4 | 357 | 6.4 | 8.0 | 0.00 | 0.00 | 0.00 | 11 | 996.8 |
| 20260506104425 | 4 | 10 | 4.8 | 8.0 | 0.00 | 0.00 | 0.00 | 11 | 996.8 |
| 20260506103925 | 4 | 31 | 1.6 | 16.1 | 0.00 | 0.00 | 0.00 | 11 | 996.7 |
| 20260506103603 | 3 | 347 | 3.2 | 16.1 | 0.00 | 0.00 | 0.00 | 11 | 996.7 |
| 20260506103425 | 3 | 338 | 3.2 | 17.7 | 0.00 | 0.00 | 0.00 | 11 | 996.7 |
| 20260506102925 | 5 | 326 | 8.0 | 17.7 | 0.00 | 0.00 | 0.00 | 11 | 997.0 |
| 20260506102721 | 5 | 327 | 6.4 | 20.9 | 0.00 | 0.00 | 0.00 | 11 | 996.7 |
| 20260506102704 | 5 | 327 | 6.4 | 20.9 | 0.00 | 0.00 | 0.00 | 11 | 996.7 |
| 20260506102425 | 5 | 324 | 8.0 | 20.9 | 0.00 | 0.00 | 0.00 | 11 | 996.6 |
| 20260506101925 | 5 | 333 | 8.0 | 20.9 | 0.00 | 0.00 | 0.00 | 11 | 996.7 |
| 20260506101804 | 5 | 335 | 11.3 | 20.9 | 0.00 | 0.00 | 0.00 | 11 | 996.6 |
| 20260506101425 | 4 | 338 | 4.8 | 14.5 | 0.00 | 0.00 | 0.00 | 11 | 996.5 |
| 20260506100925 | 4 | 349 | 3.2 | 14.5 | 0.00 | 0.00 | 0.00 | 11 | 996.5 |
| 20260506100903 | 4 | 349 | 3.2 | 14.5 | 0.00 | 0.00 | 0.00 | 11 | 996.5 |
| 20260506100721 | 4 | 350 | 6.4 | 16.1 | 0.00 | 0.00 | 0.00 | 11 | 996.4 |
| 20260506100425 | 5 | 343 | 8.0 | 24.1 | 0.00 | 0.00 | 0.00 | 11 | 996.4 |
| 20260506100003 | 5 | 327 | 8.0 | 24.1 | 0.00 | 0.00 | 0.00 | 11 | 996.5 |
| 20260506095925 | 5 | 328 | 11.3 | 24.1 | 0.00 | 0.00 | 0.00 | 11 | 996.4 |
| 20260506095425 | 6 | 316 | 11.3 | 17.7 | 0.00 | 0.00 | 0.00 | 11 | 996.5 |
| 20260506095404 | 6 | 316 | 11.3 | 17.7 | 0.00 | 0.00 | 0.00 | 11 | 996.5 |
| 20260506094925 | 5 | 320 | 3.2 | 12.9 | 0.00 | 0.00 | 0.00 | 11 | 996.1 |
| 20260506094721 | 4 | 334 | 8.0 | 12.9 | 0.00 | 0.00 | 0.00 | 11 | 996.2 |
| 20260506094503 | 4 | 341 | 6.4 | 14.5 | 0.00 | 0.00 | 0.00 | 11 | 996.2 |
| 20260506094425 | 4 | 339 | 6.4 | 16.1 | 0.00 | 0.00 | 0.00 | 11 | 996.3 |
| 20260506093925 | 4 | 347 | 3.2 | 24.1 | 0.00 | 0.00 | 0.00 | 11 | 996.4 |
| 20260506093603 | 4 | 340 | 6.4 | 24.1 | 0.00 | 0.00 | 0.00 | 11 | 996.2 |
| 20260506093425 | 4 | 349 | 9.7 | 24.1 | 0.00 | 0.00 | 0.00 | 11 | 996.2 |
| 20260506092925 | 5 | 343 | 6.4 | 17.7 | 0.00 | 0.00 | 0.00 | 11 | 996.2 |
| 20260506092721 | 5 | 338 | 6.4 | 17.7 | 0.00 | 0.00 | 0.00 | 11 | 996.2 |
| 20260506092703 | 5 | 338 | 6.4 | 17.7 | 0.00 | 0.00 | 0.00 | 11 | 996.2 |
| 20260506092425 | 5 | 327 | 6.4 | 17.7 | 0.00 | 0.00 | 0.00 | 11 | 996.2 |
| 20260506091925 | 5 | 330 | 6.4 | 14.5 | 0.00 | 0.00 | 0.00 | 11 | 996.3 |
| 20260506091804 | 4 | 326 | 6.4 | 14.5 | 0.00 | 0.00 | 0.00 | 11 | 996.1 |
| 20260506091425 | 4 | 333 | 6.4 | 12.9 | 0.00 | 0.00 | 0.00 | 11 | 996.1 |
| 20260506090925 | 3 | 323 | 6.4 | 12.9 | 0.00 | 0.00 | 0.00 | 11 | 996.2 |
| 20260506090903 | 3 | 323 | 6.4 | 12.9 | 0.00 | 0.00 | 0.00 | 11 | 996.2 |
| 20260506090721 | 3 | 306 | 4.8 | 9.7 | 0.00 | 0.00 | 0.00 | 11 | 996.2 |
| 20260506090425 | 3 | 289 | 3.2 | 9.7 | 0.00 | 0.00 | 0.00 | 11 | 996.1 |
| 20260506090004 | 3 | 279 | 3.2 | 9.7 | 0.00 | 0.00 | 0.00 | 11 | 996.1 |
| 20260506085926 | 3 | 276 | 3.2 | 9.7 | 0.00 | 0.00 | 0.00 | 11 | 996.0 |
| 20260506085426 | 3 | 310 | 3.2 | 12.9 | 0.00 | 0.00 | 0.00 | 11 | 996.0 |
| 20260506085403 | 3 | 310 | 3.2 | 12.9 | 0.00 | 0.00 | 0.00 | 11 | 996.0 |
| 20260506084927 | 3 | 351 | 3.2 | 19.3 | 0.00 | 0.00 | 0.00 | 11 | 996.1 |
| 20260506084720 | 3 | 352 | 6.4 | 19.3 | 0.00 | 0.00 | 0.00 | 11 | 996.0 |
| 20260506084503 | 3 | 359 | 6.4 | 19.3 | 0.00 | 0.00 | 0.00 | 11 | 995.9 |
| 20260506084426 | 3 | 359 | 8.0 | 19.3 | 0.00 | 0.00 | 0.00 | 11 | 996.0 |
| 20260506083926 | 3 | 331 | 12.9 | 19.3 | 0.00 | 0.00 | 0.00 | 11 | 996.0 |
| 20260506083603 | 3 | 326 | 6.4 | 12.9 | 0.00 | 0.00 | 0.00 | 11 | 996.0 |
| 20260506083426 | 3 | 322 | 4.8 | 12.9 | 0.00 | 0.00 | 0.00 | 11 | 996.1 |
| 20260506083246 | 3 | 326 | 8.0 | 12.9 | 0.00 | 0.00 | 0.00 | 11 | 996.0 |
| 20260506082724 | 3 | 330 | 3.2 | 16.1 | 0.00 | 0.00 | 0.00 | 11 | 995.9 |
| 20260506082703 | 3 | 330 | 3.2 | 16.1 | 0.00 | 0.00 | 0.00 | 11 | 995.9 |
| 20260506082246 | 3 | 325 | 6.4 | 16.1 | 0.00 | 0.00 | 0.00 | 11 | 996.0 |
| 20260506081803 | 3 | 331 | 6.4 | 12.9 | 0.00 | 0.00 | 0.00 | 11 | 995.9 |
| 20260506080903 | 3 | 335 | 6.4 | 14.5 | 0.00 | 0.00 | 0.00 | 11 | 995.8 |
| 20260506080726 | 3 | 333 | 4.8 | 14.5 | 0.00 | 0.00 | 0.00 | 11 | 995.6 |
| 20260506080246 | 3 | 336 | 6.4 | 12.9 | 0.00 | 0.00 | 0.00 | 11 | 995.6 |
| 20260506073249 | 3 | 289 | 6.4 | 11.3 | 0.00 | 0.00 | 0.00 | 11 | 995.5 |
| 20260506072722 | 3 | 269 | 3.2 | 11.3 | 0.00 | 0.00 | 0.00 | 11 | 995.4 |
| 20260506072703 | 3 | 269 | 3.2 | 11.3 | 0.00 | 0.00 | 0.00 | 11 | 995.4 |
| 20260506072246 | 3 | 249 | 4.8 | 11.3 | 0.00 | 0.00 | 0.00 | 11 | 995.2 |
| 20260506071803 | 3 | 259 | 4.8 | 11.3 | 0.00 | 0.00 | 0.00 | 11 | 995.1 |
| 20260506071746 | 3 | 268 | 3.2 | 9.7 | 0.00 | 0.00 | 0.00 | 11 | 995.2 |
| 20260506071246 | 3 | 306 | 3.2 | 11.3 | 0.00 | 0.00 | 0.00 | 11 | 995.2 |
| 20260506070903 | 3 | 308 | 3.2 | 11.3 | 0.00 | 0.00 | 0.00 | 11 | 995.0 |
| 20260506070722 | 2 | 311 | 4.8 | 11.3 | 0.00 | 0.00 | 0.00 | 11 | 995.0 |
| 20260506062246 | 2 | 265 | 4.8 | 11.3 | 0.00 | 0.00 | 0.00 | 11 | 994.7 |
| 20260506061803 | 2 | 244 | 1.6 | 8.0 | 0.00 | 0.00 | 0.00 | 11 | 994.8 |
| 20260506061747 | 2 | 238 | 3.2 | 8.0 | 0.00 | 0.00 | 0.00 | 11 | 994.8 |
| 20260506061248 | 1 | 230 | 3.2 | 8.0 | 0.00 | 0.00 | 0.00 | 11 | 994.8 |
| 20260506060903 | 1 | 227 | 3.2 | 6.4 | 0.00 | 0.00 | 0.00 | 11 | 994.9 |
| 20260506060721 | 1 | 227 | 1.6 | 8.0 | 0.00 | 0.00 | 0.00 | 11 | 994.8 |
| 20260506050903 | 0 | 195 | 4.8 | 9.7 | 0.00 | 0.00 | 0.00 | 11 | 994.2 |
| 20260506050721 | 0 | 199 | 1.6 | 6.4 | 0.00 | 0.00 | 0.00 | 11 | 994.2 |
| 20260506050245 | 0 | 198 | 3.2 | 8.0 | 0.00 | 0.00 | 0.00 | 11 | 994.2 |
| 20260506044723 | 0 | 219 | 3.2 | 6.4 | 0.00 | 0.00 | 0.00 | 11 | 994.1 |
| 20260506044503 | 0 | 226 | 3.2 | 6.4 | 0.00 | 0.00 | 0.00 | 11 | 994.0 |
| 20260506044246 | 0 | 235 | 3.2 | 8.0 | 0.00 | 0.00 | 0.00 | 11 | 993.9 |
| 20260506043747 | 0 | 237 | 3.2 | 8.0 | 0.00 | 0.00 | 0.00 | 11 | 994.0 |
| 20260506043603 | 0 | 235 | 3.2 | 8.0 | 0.00 | 0.00 | 0.00 | 11 | 993.9 |
| 20260506042722 | 0 | 247 | 3.2 | 6.4 | 0.00 | 0.00 | 0.00 | 11 | 994.0 |
| 20260506042703 | 0 | 247 | 3.2 | 6.4 | 0.00 | 0.00 | 0.00 | 11 | 994.0 |
| 20260506041803 | 0 | 224 | 1.6 | 8.0 | 0.00 | 0.00 | 0.00 | 11 | 993.9 |
| 20260506041248 | 0 | 217 | 3.2 | 6.4 | 0.00 | 0.00 | 0.00 | 11 | 993.8 |
| 20260506040903 | 0 | 223 | 3.2 | 6.4 | 0.00 | 0.00 | 0.00 | 11 | 993.9 |
| 20260506040722 | 0 | 223 | 3.2 | 8.0 | 0.00 | 0.00 | 0.00 | 11 | 993.8 |
| 20260506040248 | 0 | 228 | 3.2 | 8.0 | 0.00 | 0.00 | 0.00 | 11 | 993.8 |
| 20260506040003 | 0 | 227 | 3.2 | 8.0 | 0.00 | 0.00 | 0.00 | 11 | 993.7 |
| 20260506035748 | 0 | 222 | 4.8 | 9.7 | 0.00 | 0.00 | 0.00 | 11 | 993.9 |
| 20260506035403 | 0 | 219 | 1.6 | 9.7 | 0.00 | 0.00 | 0.00 | 11 | 993.8 |
| 20260506035245 | 0 | 213 | 3.2 | 9.7 | 0.00 | 0.00 | 0.00 | 11 | 993.7 |
| 20260506034721 | 0 | 208 | 3.2 | 9.7 | 0.00 | 0.00 | 0.00 | 11 | 993.7 |
| 20260506034503 | 0 | 204 | 3.2 | 9.7 | 0.00 | 0.00 | 0.00 | 11 | 993.5 |
| 20260506034248 | 0 | 204 | 4.8 | 9.7 | 0.00 | 0.00 | 0.00 | 11 | 993.6 |
| 20260506033749 | 0 | 212 | 3.2 | 8.0 | 0.00 | 0.00 | 0.00 | 11 | 993.6 |
| 20260506033603 | 0 | 216 | 4.8 | 8.0 | 0.00 | 0.00 | 0.00 | 11 | 993.6 |
| 20260506032721 | 0 | 212 | 3.2 | 6.4 | 0.00 | 0.00 | 0.00 | 11 | 993.5 |
| 20260506032703 | 0 | 212 | 3.2 | 6.4 | 0.00 | 0.00 | 0.00 | 11 | 993.5 |
| 20260506032246 | 0 | 209 | 3.2 | 6.4 | 0.00 | 0.00 | 0.00 | 11 | 993.4 |
| 20260506031803 | -1 | 217 | 1.6 | 6.4 | 0.00 | 0.00 | 0.00 | 11 | 993.5 |
| 20260506031748 | -1 | 222 | 3.2 | 6.4 | 0.00 | 0.00 | 0.00 | 11 | 993.4 |
| 20260506031245 | -1 | 222 | 1.6 | 6.4 | 0.00 | 0.00 | 0.00 | 11 | 993.5 |
| 20260506030903 | -1 | 225 | 0.0 | 3.2 | 0.00 | 0.00 | 0.00 | 11 | 993.3 |
| 20260506030722 | -1 | 225 | 1.6 | 3.2 | 0.00 | 0.00 | 0.00 | 11 | 993.4 |
| 20260506030249 | -1 | 206 | 1.6 | 6.4 | 0.00 | 0.00 | 0.00 | 11 | 993.5 |
| 20260506030003 | -1 | 201 | 1.6 | 6.4 | 0.00 | 0.00 | 0.00 | 11 | 993.4 |
| 20260506025745 | -1 | 190 | 3.2 | 6.4 | 0.00 | 0.00 | 0.00 | 11 | 993.3 |
| 20260506025403 | -1 | 188 | 3.2 | 6.4 | 0.00 | 0.00 | 0.00 | 11 | 993.4 |
| 20260506025245 | -1 | 189 | 3.2 | 6.4 | 0.00 | 0.00 | 0.00 | 11 | 993.4 |
| 20260506024503 | -1 | 180 | 0.0 | 1.6 | 0.00 | 0.00 | 0.00 | 11 | 993.3 |
| 20260506024245 | -1 | 180 | 0.0 | 3.2 | 0.00 | 0.00 | 0.00 | 11 | 993.3 |
| 20260506023603 | -1 | 180 | 0.0 | 3.2 | 0.00 | 0.00 | 0.00 | 11 | 993.3 |
| 20260506023244 | -2 | 180 | 1.6 | 3.2 | 0.00 | 0.00 | 0.00 | 11 | 993.2 |
| 20260506022703 | -2 | 180 | 1.6 | 3.2 | 0.00 | 0.00 | 0.00 | 11 | 993.2 |
| 20260506021803 | -2 | 180 | 0.0 | 4.8 | 0.00 | 0.00 | 0.00 | 11 | 993.2 |
| 20260506021249 | -2 | 180 | 3.2 | 4.8 | 0.00 | 0.00 | 0.00 | 11 | 993.1 |
| 20260506020903 | -2 | 180 | 1.6 | 3.2 | 0.00 | 0.00 | 0.00 | 11 | 993.0 |
| 20260506020721 | -2 | 0 | 0.0 | 0.0 | 0.00 | 0.00 | 0.00 | 11 | 993.2 |
| 20260506020003 | -2 | 180 | 0.0 | 1.6 | 0.00 | 0.00 | 0.00 | 11 | 993.2 |
| 20260506015403 | -2 | 180 | 0.0 | 3.2 | 0.00 | 0.00 | 0.00 | 11 | 993.2 |
| 20260506014720 | -2 | 180 | 1.6 | 4.8 | 0.00 | 0.00 | 0.00 | 11 | 993.2 |
| 20260506014503 | -2 | 180 | 1.6 | 4.8 | 0.00 | 0.00 | 0.00 | 11 | 993.1 |
| 20260506013603 | -2 | 180 | 1.6 | 3.2 | 0.00 | 0.00 | 0.00 | 11 | 993.1 |
| 20260506012722 | -1 | 180 | 1.6 | 4.8 | 0.00 | 0.00 | 0.00 | 11 | 993.0 |
| 20260506012703 | -1 | 180 | 1.6 | 4.8 | 0.00 | 0.00 | 0.00 | 11 | 993.0 |
| 20260506012246 | -1 | 178 | 1.6 | 6.4 | 0.00 | 0.00 | 0.00 | 11 | 992.9 |
| 20260506011803 | -1 | 167 | 3.2 | 6.4 | 0.00 | 0.00 | 0.00 | 11 | 992.9 |
| 20260506011746 | -1 | 164 | 3.2 | 6.4 | 0.00 | 0.00 | 0.00 | 11 | 992.8 |
| 20260506011246 | -1 | 135 | 0.0 | 3.2 | 0.00 | 0.00 | 0.00 | 11 | 993.0 |
| 20260506010903 | -1 | 135 | 0.0 | 3.2 | 0.00 | 0.00 | 0.00 | 11 | 992.9 |
| 20260506010722 | -1 | 0 | 0.0 | 0.0 | 0.00 | 0.00 | 0.00 | 11 | 992.9 |
| 20260506010003 | -1 | 135 | 0.0 | 3.2 | 0.00 | 0.00 | 0.00 | 11 | 992.9 |
| 20260506005403 | -1 | 136 | 0.0 | 3.2 | 0.00 | 0.00 | 0.00 | 11 | 992.9 |
| 20260506005246 | -1 | 140 | 0.0 | 3.2 | 0.00 | 0.00 | 0.00 | 11 | 992.8 |
| 20260506004504 | -1 | 168 | 1.6 | 3.2 | 0.00 | 0.00 | 0.00 | 11 | 992.8 |
| 20260506003746 | -1 | 180 | 0.0 | 1.6 | 0.00 | 0.00 | 0.00 | 11 | 992.7 |
| 20260506003603 | -1 | 180 | 0.0 | 1.6 | 0.00 | 0.00 | 0.00 | 11 | 992.8 |
| 20260506003245 | -1 | 180 | 0.0 | 1.6 | 0.00 | 0.00 | 0.00 | 11 | 992.8 |
| 20260506002722 | -1 | 200 | 0.0 | 4.8 | 0.00 | 0.00 | 0.00 | 11 | 992.8 |
| 20260506002704 | -1 | 200 | 0.0 | 4.8 | 0.00 | 0.00 | 0.00 | 11 | 992.8 |
| 20260506001803 | -1 | 211 | 1.6 | 6.4 | 0.00 | 0.00 | 0.00 | 11 | 992.9 |
| 20260506001247 | -1 | 211 | 0.0 | 4.8 | 0.00 | 0.00 | 0.00 | 11 | 992.8 |
| 20260506000903 | -1 | 217 | 0.0 | 4.8 | 0.00 | 0.00 | 0.00 | 11 | 992.7 |
| 20260506000722 | -2 | 225 | 1.6 | 3.2 | 0.00 | 0.00 | 0.00 | 11 | 992.7 |
| 20260506000247 | -2 | 210 | 1.6 | 3.2 | 0.00 | 0.00 | 0.00 | 11 | 992.8 |
| 20260506000003 | -2 | 202 | 1.6 | 4.8 | 0.00 | 0.00 | 0.00 | 11 | 992.7 |
| 20260505235403 | -2 | 189 | 1.6 | 4.8 | 0.00 | 0.00 | 0.00 | 11 | 992.7 |
| 20260505235247 | -2 | 198 | 0.0 | 4.8 | 0.00 | 0.00 | 0.00 | 11 | 992.7 |
| 20260505234724 | -2 | 216 | 0.0 | 3.2 | 0.00 | 0.00 | 0.00 | 11 | 992.8 |
| 20260505234503 | -2 | 223 | 0.0 | 3.2 | 0.00 | 0.00 | 0.00 | 11 | 992.8 |
| 20260505234245 | -2 | 225 | 1.6 | 3.2 | 0.00 | 0.00 | 0.00 | 11 | 992.8 |
| 20260505233603 | -2 | 238 | 0.0 | 4.8 | 0.00 | 0.00 | 0.00 | 11 | 992.9 |
| 20260505232721 | -1 | 224 | 1.6 | 6.4 | 0.00 | 0.00 | 0.00 | 11 | 992.9 |
| 20260505232703 | -1 | 224 | 1.6 | 6.4 | 0.00 | 0.00 | 0.00 | 11 | 992.9 |
| 20260505231803 | -1 | 212 | 3.2 | 8.0 | 0.00 | 0.00 | 0.00 | 11 | 992.8 |
| 20260505231744 | -1 | 210 | 3.2 | 8.0 | 0.00 | 0.00 | 0.00 | 11 | 992.9 |
| 20260505231246 | -1 | 216 | 3.2 | 8.0 | 0.00 | 0.00 | 0.00 | 11 | 992.8 |
| 20260505230903 | -1 | 217 | 3.2 | 8.0 | 0.00 | 0.00 | 0.00 | 11 | 992.9 |
| 20260505230248 | -1 | 207 | 3.2 | 8.0 | 0.00 | 0.00 | 0.00 | 11 | 992.8 |
| 20260505230003 | -1 | 198 | 3.2 | 8.0 | 0.00 | 0.00 | 0.00 | 11 | 992.7 |
| 20260505225745 | -1 | 204 | 3.2 | 8.0 | 0.00 | 0.00 | 0.00 | 11 | 992.9 |
| 20260505225403 | -1 | 195 | 3.2 | 8.0 | 0.00 | 0.00 | 0.00 | 11 | 992.9 |
| 20260505225245 | -1 | 202 | 3.2 | 6.4 | 0.00 | 0.00 | 0.00 | 11 | 992.9 |
| 20260505224503 | -1 | 215 | 1.6 | 4.8 | 0.00 | 0.00 | 0.00 | 11 | 992.9 |
| 20260505224244 | -1 | 214 | 1.6 | 4.8 | 0.00 | 0.00 | 0.00 | 11 | 992.8 |
| 20260505223744 | -1 | 210 | 1.6 | 4.8 | 0.00 | 0.00 | 0.00 | 11 | 992.9 |
| 20260505223603 | -1 | 215 | 3.2 | 4.8 | 0.00 | 0.00 | 0.00 | 11 | 993.0 |
| 20260505223244 | -1 | 217 | 1.6 | 4.8 | 0.00 | 0.00 | 0.00 | 11 | 992.9 |
| 20260505222723 | -1 | 234 | 1.6 | 4.8 | 0.00 | 0.00 | 0.00 | 11 | 993.1 |
| 20260505222703 | -1 | 234 | 1.6 | 4.8 | 0.00 | 0.00 | 0.00 | 11 | 993.1 |
| 20260505221803 | -1 | 238 | 0.0 | 4.8 | 0.00 | 0.00 | 0.00 | 11 | 993.1 |
| 20260505221746 | -1 | 235 | 0.0 | 4.8 | 0.00 | 0.00 | 0.00 | 11 | 993.0 |
| 20260505220903 | -1 | 217 | 0.0 | 4.8 | 0.00 | 0.00 | 0.00 | 11 | 992.9 |
| 20260505220003 | -1 | 210 | 1.6 | 6.4 | 0.00 | 0.00 | 0.00 | 11 | 993.0 |
| 20260505215403 | -1 | 225 | 3.2 | 6.4 | 0.00 | 0.00 | 0.00 | 11 | 992.9 |
| 20260505214723 | -1 | 223 | 3.2 | 6.4 | 0.00 | 0.00 | 0.00 | 11 | 992.9 |
| 20260505214503 | -1 | 227 | 1.6 | 6.4 | 0.00 | 0.00 | 0.00 | 11 | 992.9 |
| 20260505214247 | -1 | 222 | 3.2 | 8.0 | 0.00 | 0.00 | 0.00 | 11 | 993.1 |
| 20260505213603 | -1 | 217 | 3.2 | 8.0 | 0.00 | 0.00 | 0.00 | 11 | 992.8 |
| 20260505213245 | -1 | 213 | 3.2 | 6.4 | 0.00 | 0.00 | 0.00 | 11 | 993.1 |
| 20260505212703 | -1 | 218 | 3.2 | 9.7 | 0.00 | 0.00 | 0.00 | 11 | 992.9 |
| 20260505211803 | 0 | 215 | 3.2 | 11.3 | 0.00 | 0.00 | 0.00 | 11 | 992.8 |
| 20260505211245 | 0 | 208 | 3.2 | 11.3 | 0.00 | 0.00 | 0.00 | 11 | 992.8 |
| 20260505210903 | 0 | 201 | 6.4 | 11.3 | 0.00 | 0.00 | 0.00 | 11 | 992.8 |
| 20260505210722 | 0 | 198 | 3.2 | 8.0 | 0.00 | 0.00 | 0.00 | 11 | 992.8 |
| 20260505210248 | 0 | 215 | 3.2 | 8.0 | 0.00 | 0.00 | 0.00 | 11 | 992.7 |
| 20260505210003 | 0 | 221 | 3.2 | 8.0 | 0.00 | 0.00 | 0.00 | 11 | 992.7 |
| 20260505205403 | 0 | 233 | 3.2 | 8.0 | 0.00 | 0.00 | 0.00 | 11 | 992.7 |
| 20260505205245 | 0 | 222 | 3.2 | 8.0 | 0.00 | 0.00 | 0.00 | 11 | 992.7 |
| 20260505204606 | 0 | 229 | 1.6 | 9.7 | 0.00 | 0.00 | 0.00 | 11 | 992.6 |
| 20260505204503 | 0 | 231 | 3.2 | 9.7 | 0.00 | 0.00 | 0.00 | 11 | 992.6 |
| 20260505203606 | 0 | 247 | 3.2 | 8.0 | 0.00 | 0.00 | 0.00 | 11 | 992.6 |
| 20260505203603 | 0 | 251 | 3.2 | 8.0 | 0.00 | 0.00 | 0.00 | 11 | 992.6 |
| 20260505202703 | 0 | 222 | 3.2 | 12.9 | 0.00 | 0.00 | 0.00 | 11 | 992.6 |
| 20260505202606 | 0 | 226 | 3.2 | 12.9 | 0.00 | 0.00 | 0.00 | 11 | 992.5 |
| 20260505201803 | 0 | 242 | 3.2 | 12.9 | 0.00 | 0.00 | 0.00 | 11 | 992.5 |
| 20260505200903 | 1 | 258 | 1.6 | 6.4 | 0.00 | 0.00 | 0.00 | 11 | 992.4 |
| 20260505200716 | 1 | 255 | 3.2 | 6.4 | 0.00 | 0.00 | 0.00 | 11 | 992.4 |
| 20260505200606 | 1 | 256 | 1.6 | 6.4 | 0.00 | 0.00 | 0.00 | 11 | 992.6 |
| 20260505200003 | 1 | 229 | 1.6 | 6.4 | 0.00 | 0.00 | 0.00 | 11 | 992.5 |
| 20260505195606 | 1 | 235 | 1.6 | 9.7 | 0.00 | 0.00 | 0.00 | 11 | 992.4 |
| 20260505195403 | 1 | 239 | 0.0 | 12.9 | 0.00 | 0.00 | 0.00 | 11 | 992.4 |
| 20260505195106 | 1 | 243 | 1.6 | 12.9 | 0.00 | 0.00 | 0.00 | 11 | 992.3 |
| 20260505194606 | 1 | 241 | 3.2 | 12.9 | 0.00 | 0.00 | 0.00 | 11 | 992.3 |
| 20260505194503 | 1 | 243 | 3.2 | 12.9 | 0.00 | 0.00 | 0.00 | 11 | 992.4 |
| 20260505194112 | 1 | 244 | 4.8 | 12.9 | 0.00 | 0.00 | 0.00 | 11 | 992.2 |
| 20260505193609 | 1 | 236 | 3.2 | 8.0 | 0.00 | 0.00 | 0.00 | 11 | 992.3 |
| 20260505193603 | 1 | 240 | 4.8 | 11.3 | 0.00 | 0.00 | 0.00 | 11 | 992.3 |
| 20260505193106 | 1 | 251 | 3.2 | 6.4 | 0.00 | 0.00 | 0.00 | 11 | 992.3 |
| 20260505192712 | 2 | 289 | 3.2 | 12.9 | 0.00 | 0.00 | 0.00 | 11 | 992.3 |
| 20260505192703 | 2 | 289 | 3.2 | 12.9 | 0.00 | 0.00 | 0.00 | 11 | 992.3 |
| 20260505192612 | 2 | 298 | 1.6 | 12.9 | 0.00 | 0.00 | 0.00 | 11 | 992.2 |
| 20260505192110 | 2 | 273 | 3.2 | 12.9 | 0.00 | 0.00 | 0.00 | 11 | 992.3 |
| 20260505191803 | 2 | 269 | 6.4 | 12.9 | 0.00 | 0.00 | 0.00 | 11 | 992.3 |
| 20260505191108 | 2 | 283 | 1.6 | 12.9 | 0.00 | 0.00 | 0.00 | 11 | 992.3 |
| 20260505190903 | 2 | 283 | 3.2 | 12.9 | 0.00 | 0.00 | 0.00 | 11 | 992.2 |
| 20260505190714 | 2 | 297 | 4.8 | 11.3 | 0.00 | 0.00 | 0.00 | 11 | 992.2 |
| 20260505190609 | 2 | 293 | 8.0 | 11.3 | 0.00 | 0.00 | 0.00 | 11 | 992.2 |
| 20260505190004 | 2 | 317 | 3.2 | 16.1 | 0.00 | 0.00 | 0.00 | 11 | 992.1 |
| 20260505185403 | 2 | 311 | 6.4 | 16.1 | 0.00 | 0.00 | 0.00 | 11 | 992.1 |
| 20260505185107 | 2 | 307 | 4.8 | 12.9 | 0.00 | 0.00 | 0.00 | 11 | 992.2 |
| 20260505184503 | 2 | 319 | 6.4 | 14.5 | 0.00 | 0.00 | 0.00 | 11 | 992.1 |
| 20260505183608 | 2 | 335 | 6.4 | 12.9 | 0.00 | 0.00 | 0.00 | 11 | 991.9 |
| 20260505183603 | 2 | 335 | 6.4 | 12.9 | 0.00 | 0.00 | 0.00 | 11 | 991.9 |
| 20260505182713 | 2 | 329 | 3.2 | 14.5 | 0.00 | 0.00 | 0.00 | 11 | 991.9 |
| 20260505182704 | 2 | 329 | 3.2 | 16.1 | 0.00 | 0.00 | 0.00 | 11 | 991.9 |
| 20260505181803 | 3 | 305 | 3.2 | 16.1 | 0.00 | 0.00 | 0.00 | 11 | 991.9 |
| 20260505181607 | 3 | 305 | 6.4 | 16.1 | 0.00 | 0.00 | 0.00 | 11 | 991.9 |